KB1JL-13 Weather Reports


Display with metric or nautical units.
time (UTC)temp
F
wind
direction
speed
MPH
gust
MPH
rain 1hr
in
rain 24hr
in
rain mn
in
humidity
%
barometer
mb
20260504160159 66 201 6.0 9.0 0.00 0.00 0.00 39 1023.4
20260504151127 64 188 0.0 0.0 0.00 0.00 0.00 39 1023.4
20260504150625 65 190 0.0 0.0 0.00 0.00 0.00 38 1023.7
20260504150121 64 184 3.0 11.0 0.00 0.00 0.00 39 1023.7
20260504141050 63 208 0.0 2.0 0.00 0.00 0.00 43 1023.7
20260504140546 63 210 0.0 0.0 0.00 0.00 0.00 42 1024.0
20260504130511 59 210 0.0 0.0 0.00 0.00 0.00 48 1024.4
20260504110358 47 161 0.0 0.0 0.00 0.00 0.00 65 1024.7
20260504100315 47 168 0.0 0.0 0.00 0.00 0.00 63 1024.4
20260504081709 45 170 0.0 0.0 0.00 0.00 0.00 63 1024.0
20260504081205 46 170 0.0 0.0 0.00 0.00 0.00 62 1023.7
20260504080701 46 143 0.0 0.0 0.00 0.00 0.00 62 1024.0
20260504080158 45 266 0.0 0.0 0.00 0.00 0.00 62 1024.0
20260504070126 46 151 0.0 0.0 0.00 0.00 0.00 62 1024.0
20260504050514 43 76 0.0 0.0 0.00 0.00 0.00 65 1023.4
20260504050012 42 30 0.0 0.0 0.00 0.00 0.00 63 1023.7
20260504045508 42 55 0.0 0.0 0.00 0.00 0.00 64 1023.7
20260504045003 43 31 0.0 0.0 0.00 0.00 0.00 61 1023.7
20260504044501 42 19 0.0 0.0 0.00 0.00 0.00 63 1023.7
20260504043958 43 44 0.0 0.0 0.00 0.00 0.00 63 1023.7
20260504043455 42 44 0.0 0.0 0.00 0.00 0.00 63 1023.7
20260504042952 42 45 0.0 0.0 0.00 0.00 0.00 64 1023.7
20260504042449 43 45 0.0 0.0 0.00 0.00 0.00 62 1023.7
20260504041946 43 45 0.0 0.0 0.00 0.00 0.00 61 1023.7
20260504041442 43 49 0.0 0.0 0.00 0.00 0.00 63 1023.7
20260504040937 43 49 0.0 0.0 0.00 0.00 0.00 62 1023.7
20260504040436 43 49 0.0 0.0 0.00 0.00 0.00 60 1023.7
20260504035931 43 49 0.0 0.0 0.00 0.00 0.00 61 1023.7
20260504035429 43 49 0.0 0.0 0.00 0.00 0.00 61 1023.4
20260504034926 43 49 0.0 0.0 0.00 0.00 0.00 61 1023.4
20260504034423 43 50 0.0 0.0 0.00 0.00 0.00 60 1023.7
20260504033920 43 50 0.0 0.0 0.00 0.00 0.00 61 1023.4
20260504033418 43 49 0.0 0.0 0.00 0.00 0.00 61 1023.4
20260504032915 43 49 0.0 0.0 0.00 0.00 0.00 60 1023.4
20260504032412 43 49 0.0 0.0 0.00 0.00 0.00 60 1023.4
20260504031908 43 49 0.0 0.0 0.00 0.00 0.00 62 1023.4
20260504031405 43 49 0.0 0.0 0.00 0.00 0.00 63 1023.4
20260504030902 44 50 0.0 0.0 0.00 0.00 0.00 61 1023.4
20260504030359 43 50 0.0 0.0 0.00 0.00 0.00 61 1023.4
20260504025855 43 50 0.0 0.0 0.00 0.00 0.00 61 1023.4
20260504025352 43 50 0.0 0.0 0.00 0.00 0.00 62 1023.4
20260504024849 43 49 0.0 0.0 0.00 0.00 0.00 61 1023.4
20260504024345 43 50 0.0 0.0 0.00 0.00 0.00 61 1023.4
20260504023842 44 50 0.0 0.0 0.00 0.00 0.00 59 1023.4
20260504023339 43 49 0.0 0.0 0.00 0.00 0.00 59 1023.4
20260504022834 43 49 0.0 0.0 0.00 0.00 0.00 62 1023.4
20260504022332 43 49 0.0 0.0 0.00 0.00 0.00 61 1023.4
20260504021828 43 49 0.0 0.0 0.00 0.00 0.00 61 1023.0
20260504021326 44 49 0.0 0.0 0.00 0.00 0.00 60 1023.4
20260504020823 44 48 0.0 0.0 0.00 0.00 0.00 61 1023.0
20260504020319 44 36 0.0 0.0 0.00 0.00 0.00 56 1023.4
20260504015815 44 83 0.0 0.0 0.00 0.00 0.00 61 1023.4
20260504015312 43 87 0.0 0.0 0.00 0.00 0.00 59 1023.0
20260504014808 44 87 0.0 0.0 0.00 0.00 0.00 59 1023.4
20260504014304 44 87 0.0 0.0 0.00 0.00 0.00 58 1023.0
20260504013802 45 87 0.0 0.0 0.00 0.00 0.00 56 1023.0
20260504013300 45 86 0.0 0.0 0.00 0.00 0.00 58 1023.0
20260504012755 45 86 0.0 0.0 0.00 0.00 0.00 57 1023.0
20260504012254 46 86 0.0 0.0 0.00 0.00 0.00 56 1023.0
20260504011750 45 97 0.0 0.0 0.00 0.00 0.00 57 1022.6
20260504011247 45 98 0.0 0.0 0.00 0.00 0.00 56 1022.6
20260504010743 45 97 0.0 0.0 0.00 0.00 0.00 55 1022.6
20260504010238 46 97 0.0 0.0 0.00 0.00 0.00 56 1022.2
20260504005736 46 88 0.0 0.0 0.00 0.00 0.00 57 1022.2
20260504005233 46 88 0.0 0.0 0.00 0.00 0.00 57 1022.2
20260504004731 46 88 0.0 0.0 0.00 0.00 0.00 57 1022.6
20260504004227 46 88 0.0 0.0 0.00 0.00 0.00 55 1022.2
20260504003724 46 88 0.0 0.0 0.00 0.00 0.00 56 1022.2
20260504003221 46 89 0.0 0.0 0.00 0.00 0.00 56 1021.9
20260504002718 46 88 0.0 0.0 0.00 0.00 0.00 55 1021.9
20260504002214 46 88 0.0 0.0 0.00 0.00 0.00 54 1021.6
20260504001712 47 88 0.0 0.0 0.00 0.00 0.00 54 1021.6
20260504001209 47 88 0.0 0.0 0.00 0.00 0.00 53 1021.6
20260504000706 47 88 0.0 0.0 0.00 0.00 0.00 51 1021.6
20260504000204 48 88 0.0 0.0 0.00 0.00 0.00 50 1021.6
20260503235701 48 88 0.0 0.0 0.00 0.00 0.00 48 1021.6
20260503235157 49 88 0.0 0.0 0.00 0.00 0.00 47 1021.6
20260503234655 50 88 0.0 0.0 0.00 0.00 0.00 45 1021.6
20260503234154 51 88 0.0 0.0 0.00 0.00 0.00 45 1021.6
20260503233650 52 88 0.0 0.0 0.00 0.00 0.00 42 1021.6
20260503233146 52 55 0.0 0.0 0.00 0.00 0.00 42 1021.6
20260503232643 53 138 0.0 0.0 0.00 0.00 0.00 41 1021.6
20260503232140 53 129 0.0 0.0 0.00 0.00 0.00 42 1021.2
20260503231638 53 137 0.0 0.0 0.00 0.00 0.00 41 1021.2
20260503231134 53 92 0.0 0.0 0.00 0.00 0.00 41 1021.2
20260503230631 53 209 0.0 0.0 0.00 0.00 0.00 41 1021.2
20260503230129 54 43 0.0 0.0 0.00 0.00 0.00 42 1021.2
20260503225626 54 65 0.0 0.0 0.00 0.00 0.00 40 1021.2
20260503225125 54 251 0.0 0.0 0.00 0.00 0.00 40 1020.9
20260503224623 54 148 0.0 0.0 0.00 0.00 0.00 39 1020.9
20260503224121 55 37 0.0 0.0 0.00 0.00 0.00 38 1020.9
20260503223619 55 243 0.0 1.0 0.00 0.00 0.00 38 1020.9
20260503223114 55 143 0.0 0.0 0.00 0.00 0.00 39 1020.9
20260503222612 55 25 0.0 0.0 0.00 0.00 0.00 40 1020.9
20260503222110 55 133 0.0 0.0 0.00 0.00 0.00 40 1020.9
20260503221608 55 316 0.0 0.0 0.00 0.00 0.00 38 1020.9
20260503221105 55 88 0.0 0.0 0.00 0.00 0.00 40 1020.9
20260503220601 55 137 0.0 0.0 0.00 0.00 0.00 38 1020.9
20260503220058 55 118 0.0 0.0 0.00 0.00 0.00 41 1020.9
20260503215555 55 35 0.0 0.0 0.00 0.00 0.00 39 1020.9
20260503215052 55 2 0.0 0.0 0.00 0.00 0.00 39 1020.9
20260503214550 55 226 0.0 0.0 0.00 0.00 0.00 39 1020.9
20260503214046 55 44 2.0 5.0 0.00 0.00 0.00 38 1021.2
20260503213545 56 155 0.0 0.0 0.00 0.00 0.00 39 1020.9
20260503213041 56 88 0.0 0.0 0.00 0.00 0.00 40 1020.9
20260503212539 55 11 0.0 0.0 0.00 0.00 0.00 41 1020.9
20260503212036 55 57 0.0 0.0 0.00 0.00 0.00 41 1020.9
20260503211533 55 174 0.0 0.0 0.00 0.00 0.00 41 1020.9
20260503211028 56 22 0.0 0.0 0.00 0.00 0.00 40 1020.9
20260503210526 55 79 0.0 1.0 0.00 0.00 0.00 41 1020.9
20260503210021 55 218 0.0 2.0 0.00 0.00 0.00 41 1020.9
20260503205518 55 0 0.0 0.0 0.00 0.00 0.00 42 1020.9
20260503205015 55 280 0.0 0.0 0.00 0.00 0.00 41 1020.9
20260503204512 55 41 0.0 0.0 0.00 0.00 0.00 41 1020.9
20260503204009 55 30 0.0 0.0 0.00 0.00 0.00 41 1020.9
20260503203506 55 135 0.0 0.0 0.00 0.00 0.00 42 1020.9
20260503203003 55 14 9.0 14.0 0.00 0.00 0.00 40 1020.9
20260503202501 55 19 0.0 1.0 0.00 0.00 0.00 43 1020.9
20260503201959 55 315 1.0 3.0 0.00 0.00 0.00 40 1020.9
20260503201456 54 27 5.0 7.0 0.00 0.00 0.00 41 1020.9
20260503200953 53 38 0.0 0.0 0.00 0.00 0.00 43 1020.9
20260503200450 52 41 0.0 1.0 0.00 0.00 0.00 42 1020.9
20260503195946 53 11 0.0 0.0 0.00 0.00 0.00 43 1020.9
20260503195444 53 46 3.0 8.0 0.00 0.00 0.00 43 1020.9
20260503194940 52 201 2.0 6.0 0.00 0.00 0.00 43 1020.9
20260503194437 52 262 0.0 0.0 0.00 0.00 0.00 44 1020.9
20260503193932 53 349 10.0 16.0 0.00 0.00 0.00 42 1020.9
20260503193428 52 15 1.0 5.0 0.00 0.00 0.00 42 1020.9
20260503192924 52 47 0.0 0.0 0.00 0.00 0.00 43 1020.9
20260503192421 55 36 2.0 7.0 0.00 0.00 0.00 41 1020.9
20260503191916 55 315 0.0 0.0 0.00 0.00 0.00 42 1020.9
20260503191414 55 23 3.0 6.0 0.00 0.00 0.00 42 1020.5
20260503190910 56 182 0.0 0.0 0.00 0.00 0.00 40 1020.5
20260503190408 54 37 0.0 0.0 0.00 0.00 0.00 42 1020.5
20260503185904 55 312 1.0 3.0 0.00 0.00 0.00 40 1020.5
20260503185401 54 356 1.0 5.0 0.00 0.00 0.00 41 1020.5
20260503184900 54 73 0.0 0.0 0.00 0.00 0.00 44 1020.9
20260503184356 55 356 0.0 2.0 0.00 0.00 0.00 42 1020.5
20260503183853 55 61 3.0 7.0 0.00 0.00 0.00 40 1020.5
20260503183350 54 44 0.0 0.0 0.00 0.00 0.00 42 1020.5
20260503182847 54 24 1.0 3.0 0.00 0.00 0.00 40 1020.9
20260503182346 53 5 4.0 7.0 0.00 0.00 0.00 41 1020.5
20260503181842 54 75 0.0 0.0 0.00 0.00 0.00 43 1020.5
20260503181340 54 34 1.0 5.0 0.00 0.00 0.00 42 1020.9
20260503180836 53 168 0.0 0.0 0.00 0.00 0.00 44 1020.5
20260503180334 53 31 0.0 1.0 0.00 0.00 0.00 43 1020.9
20260503175830 54 14 0.0 0.0 0.00 0.00 0.00 46 1020.9
20260503175329 53 191 0.0 0.0 0.00 0.00 0.00 48 1020.9
20260503174823 52 278 0.0 1.0 0.00 0.00 0.00 47 1020.9
20260503174322 52 336 3.0 7.0 0.00 0.00 0.00 48 1020.9
20260503173817 53 142 0.0 1.0 0.00 0.00 0.00 46 1020.9
20260503173314 52 353 0.0 2.0 0.00 0.00 0.00 49 1020.9
20260503172811 51 75 0.0 0.0 0.00 0.00 0.00 49 1021.2
20260503172308 52 177 1.0 6.0 0.00 0.00 0.00 48 1021.2
20260503171804 51 338 2.0 3.0 0.00 0.00 0.00 48 1021.2
20260503171301 52 57 0.0 0.0 0.00 0.00 0.00 49 1020.9
20260503170758 52 324 0.0 1.0 0.00 0.00 0.00 48 1021.2
20260503170255 51 66 0.0 0.0 0.00 0.00 0.00 47 1020.9